Weather observations for the past three days for
Steven A Bean Municipal Airport
Imperial (Metric)
Date Time (edt) Wind (mph) Vis. (mi.) Weather Sky Cond. Temperature (ºF) Relative Humidity Wind Chill (°F) Heat Index (°F) Pressure Precipitation (in)
Air Dwpt 6 hour altimeter (in) sea level (mb) 1 hr 3 hr 6 hr
Max. Min.
24 10:15 W 6 10.00 Overcast FEW020 BKN049 OVC055 68 62.6 83% 29.52 0.0
24 09:55 NW 6 10.00 Mostly Cloudy FEW020 BKN050 68 62.6 83% 29.52 0.0
24 09:35 NW 7 10.00 Mostly Cloudy BKN050 68 62.6 83% 29.52 0.0
24 09:15 Vrbl 5 10.00 Overcast FEW024 SCT040 OVC050 66.2 62.6 88% 29.52 0.0
24 08:55 W 6 10.00 Overcast BKN023 BKN040 OVC050 66.2 64.4 94% 29.52 0.0
24 08:35 Vrbl 7 10.00 Overcast FEW024 SCT029 OVC050 66.2 62.6 88% 29.52 0.0
24 08:15 W 7 10.00 Overcast FEW038 OVC048 64.4 64.4 100% 29.52 0.0
24 07:55 W 8 10.00 Overcast FEW029 SCT034 OVC047 66.2 64.4 94% 29.51 0.0
24 07:35 W 3 10.00 Overcast BKN028 BKN034 OVC046 64.4 64.4 100% 29.51 0.0
24 07:15 W 3 10.00 Overcast OVC028 64.4 64.4 100% 29.51 0.0
24 06:55 Vrbl 6 10.00 Overcast OVC029 64.4 64.4 100% 29.51 0.0
24 06:35 W 3 10.00 Overcast BKN029 OVC045 64.4 64.4 100% 29.51 0.0
24 06:15 Calm 10.00 Overcast FEW030 SCT037 OVC044 64.4 64.4 100% 29.5 0.0
24 05:55 W 5 10.00 Overcast BKN030 BKN040 OVC050 64.4 64.4 100% 29.5 0.0
24 05:35 Calm 10.00 Overcast FEW032 OVC048 64.4 64.4 100% 29.49 0.0
24 04:55 Calm 10.00 Mostly Cloudy SCT005 BKN011 BKN019 64.4 64.4 100% 29.48 0.0
24 04:35 Calm 10.00 Mostly Cloudy BKN006 66.2 66.2 100% 29.47 0.0
24 04:15 Calm 8.00 Overcast SCT006 BKN009 OVC014 66.2 66.2 100% 29.47 0.0
24 03:55 Calm 8.00 Overcast FEW007 BKN013 OVC019 66.2 66.2 100% 29.46 0.0
24 03:35 Calm 9.00 Overcast SCT008 OVC015 66.2 66.2 100% 29.46 0.0
24 03:15 Calm 8.00 Overcast BKN010 BKN019 OVC060 66.2 66.2 100% 29.46 0.0
24 02:55 Calm 7.00 Overcast SCT012 SCT020 OVC070 66.2 66.2 100% 29.46 0.0
24 02:35 Calm 5.00 Fog/Mist FEW022 BKN060 OVC070 66.2 66.2 100% 29.47 0.0
24 02:15 Calm 5.00 Fog/Mist FEW005 SCT060 BKN090 66.2 66.2 100% 29.47 0.0
24 01:55 Calm 5.00 Fog/Mist FEW060 66.2 66.2 100% 29.47 0.0
24 01:35 SW 3 6.00 Fog/Mist FEW036 66.2 66.2 100% 29.47 0.0
24 01:15 Calm 6.00 Fog/Mist FEW035 SCT044 SCT049 66.2 66.2 100% 29.47 0.0
24 00:55 Calm 7.00 Mostly Cloudy FEW004 SCT040 BKN047 66.2 66.2 100% 29.47 0.0
24 00:35 Calm 7.00 Overcast BKN004 BKN008 OVC060 66.2 66.2 100% 29.47 0.0
24 00:15 Calm 8.00 Overcast FEW005 BKN008 OVC036 66.2 66.2 100% 29.47 0.0
23 23:55 Calm 8.00 Mostly Cloudy SCT013 SCT024 BKN037 66.2 66.2 100% 29.47 0.0
23 23:35 Calm 6.00 Fog/Mist SCT014 BKN020 BKN031 66.2 66.2 100% 29.47 0.0
23 23:15 Calm 9.00 Mostly Cloudy SCT016 SCT038 BKN050 66.2 66.2 100% 29.47 0.0
23 22:55 Vrbl 6 G 12 9.00 Overcast FEW014 BKN050 OVC100 66.2 66.2 100% 29.48 0.0 0.16
23 22:35 Vrbl 6 3.00 Rain FEW006 SCT023 BKN038 64.4 64.4 100% 29.48 0.0
23 22:15 Calm 3.00 Light Rain SCT006 BKN014 OVC049 64.4 64.4 100% 29.48 0.0
23 21:55 Calm 3.00 Fog/Mist SCT007 BKN021 OVC070 62.6 62.6 100% 29.49 0.0
23 21:35 Calm 8.00 Overcast BKN037 BKN055 OVC070 64.4 64.4 100% 29.48 0.0
23 20:35 Calm 7.00 Overcast OVC004 64.4 64.4 100% 29.5 0.0
23 19:55 Calm 4.00 Rain BKN010 BKN014 OVC048 64.4 64.4 100% 29.51 0.0 0.34
23 19:35 Calm 6.00 Fog/Mist SCT003 BKN013 OVC048 62.6 62.6 100% 29.51 0.0
23 19:15 Vrbl 3 G 17 0.50 Heavy Rain OVC003 62.6 62.6 100% 29.52 0.0
23 18:55 Vrbl 3 2.50 Light Rain BKN004 BKN039 OVC050 62.6 62.6 100% 29.5 0.0 0.22
23 18:35 Calm 2.50 Thunderstorm Rain SCT004 BKN037 OVC046 62.6 62.6 100% 29.53 0.0
23 18:15 Calm 2.00 Light Rain BKN037 OVC047 62.6 62.6 100% 29.52 0.0
23 17:55 Calm 3.00 Light Rain SCT038 SCT049 BKN060 62.6 62.6 100% 29.54 0.0 0.03
23 17:35 Vrbl 5 8.00 Fair CLR 62.6 62.6 100% 29.54 0.0
23 17:15 Calm 8.00 Partly Cloudy FEW004 FEW013 SCT055 62.6 62.6 100% 29.54 0.0
23 16:55 Calm 3.00 Light Rain BKN004 BKN050 BKN060 60.8 60.8 100% 29.56 0.0 0.03
23 16:35 S 8 8.00 A Few Clouds FEW004 60.8 60.8 100% 29.55 0.0
23 16:15 Vrbl 5 G 12 7.00 A Few Clouds FEW020 FEW065 FEW085 62.6 62.6 100% 29.57 0.0
23 15:55 Vrbl 7 10.00 Partly Cloudy FEW011 FEW065 SCT080 62.6 62.6 100% 29.59 0.0
23 15:35 Vrbl 5 G 12 10.00 Mostly Cloudy BKN013 64.4 64.4 100% 29.59 0.0
23 15:15 Vrbl 7 10.00 Mostly Cloudy FEW007 BKN012 BKN021 64.4 64.4 100% 29.6 0.0
23 14:35 Vrbl 7 G 15 10.00 Overcast BKN009 OVC013 62.6 62.6 100% 29.62 0.0
23 14:15 Vrbl 7 G 14 10.00 Overcast OVC011 64.4 64.4 100% 29.63 0.0
23 13:55 SE 8 10.00 Overcast BKN008 OVC011 62.6 62.6 100% 29.64 0.0
23 13:35 S 8 10.00 Overcast OVC007 62.6 62.6 100% 29.66 0.0
23 13:15 Vrbl 6 G 12 10.00 Overcast OVC008 60.8 60.8 100% 29.67 0.0
23 12:55 Vrbl 5 10.00 Overcast OVC008 60.8 60.8 100% 29.68 0.0
23 12:35 S 8 10.00 Overcast OVC009 60.8 60.8 100% 29.69 0.0
23 12:15 Vrbl 6 10.00 Overcast BKN009 OVC013 60.8 60.8 100% 29.69 0.0
23 11:55 Vrbl 7 G 14 10.00 Overcast OVC011 59 59 100% 29.71 0.0 0.02
23 11:35 S 8 10.00 Overcast BKN010 BKN013 OVC025 59 59 100% 29.72 0.0
23 11:15 S 8 9.00 Mostly Cloudy FEW008 BKN013 BKN019 57.2 57.2 100% 29.73 0.0
23 10:55 S 9 6.00 Fog/Mist SCT009 BKN014 BKN020 57.2 57.2 100% 29.74 0.0 0.04
23 10:35 Vrbl 7 G 13 4.00 Light Rain BKN009 BKN013 OVC035 57.2 57.2 100% 29.76 0.0
23 10:15 Vrbl 6 G 16 9.00 Mostly Cloudy FEW008 SCT012 BKN026 57.2 57.2 100% 29.77 0.0
23 09:55 Vrbl 7 G 18 7.00 Mostly Cloudy FEW012 BKN027 BKN033 57.2 57.2 100% 29.77 0.0 0.1
23 09:35 S 10 3.00 Light Rain BKN007 BKN012 OVC029 57.2 57.2 100% 29.78 0.0
23 09:15 Vrbl 7 G 16 2.50 Light Rain BKN008 BKN014 OVC027 55.4 55.4 100% 29.81 0.0
23 08:55 SE 7 5.00 Fog/Mist BKN008 BKN013 OVC028 57.2 57.2 100% 29.81 0.0 0.05
23 08:35 SE 7 G 14 3.00 Fog/Mist OVC007 55.4 55.4 100% 29.82 0.0
23 07:55 Vrbl 5 G 12 3.00 Light Rain OVC003 55.4 55.4 100% 29.85 0.0 0.03
23 07:35 SE 8 2.50 Fog/Mist OVC003 55.4 55.4 100% 29.86 0.0
23 07:15 SE 8 1.25 Fog/Mist OVC003 55.4 55.4 100% 29.86 0.0
23 06:55 S 8 G 14 3.00 Fog/Mist OVC003 55.4 55.4 100% 29.87 0.0
23 06:35 Vrbl 6 G 13 7.00 Overcast OVC004 55.4 55.4 100% 29.87 0.0
23 06:15 SE 6 9.00 Overcast BKN007 OVC011 55.4 55.4 100% 29.88 0.0
23 05:55 SE 6 10.00 Overcast OVC010 55.4 55.4 100% 29.88 0.0
23 05:35 Calm 10.00 Overcast BKN009 OVC100 55.4 55.4 100% 29.88 0.0
23 05:15 SE 3 10.00 Overcast SCT010 BKN021 OVC100 55.4 55.4 100% 29.89 0.0
23 04:55 Calm 10.00 Overcast BKN010 OVC021 55.4 55.4 100% 29.9 0.0
23 04:35 Vrbl 5 10.00 Overcast BKN010 OVC022 55.4 55.4 100% 29.91 0.0
23 04:15 Calm 10.00 Overcast OVC009 55.4 55.4 100% 29.92 0.0
23 03:55 SE 5 10.00 Overcast OVC010 55.4 55.4 100% 29.94 0.0 0.02
23 03:35 SE 6 8.00 Overcast OVC007 57.2 57.2 100% 29.93 0.0
23 03:15 Calm 5.00 Fog/Mist OVC008 57.2 57.2 100% 29.96 0.0
23 02:55 SE 3 5.00 Fog/Mist OVC008 57.2 57.2 100% 29.96 0.0 0.01
23 02:35 Vrbl 5 6.00 Fog/Mist BKN006 BKN010 OVC023 57.2 57.2 100% 29.96 0.0
23 02:15 Vrbl 3 9.00 Overcast BKN008 BKN013 OVC065 57.2 57.2 100% 29.97 0.0
23 01:55 SE 3 9.00 Overcast OVC008 57.2 57.2 100% 29.97 0.0
23 01:35 Calm 7.00 Overcast OVC007 57.2 57.2 100% 29.99 0.0
23 01:15 Calm 10.00 Overcast OVC007 57.2 57.2 100% 29.99 0.0
23 00:55 SE 3 10.00 Overcast BKN007 BKN050 OVC065 57.2 57.2 100% 29.99 0.0
23 00:35 Calm 10.00 Overcast FEW006 BKN065 OVC075 57.2 57.2 100% 30 0.0
23 00:15 SE 5 10.00 Overcast FEW006 BKN070 OVC090 57.2 57.2 100% 30 0.0
22 23:55 Calm 10.00 Overcast OVC075 59 59 100% 30.01 0.0
22 23:35 Calm 10.00 Overcast FEW060 BKN075 OVC120 59 59 100% 30.01 0.0
22 23:15 Calm 10.00 Mostly Cloudy BKN060 BKN075 BKN100 59 59 100% 30.02 0.0
22 22:55 Calm 10.00 Overcast FEW070 BKN075 OVC120 59 59 100% 30.03 0.0
22 22:35 Calm 10.00 Partly Cloudy FEW070 FEW080 SCT090 59 59 100% 30.04 0.0
22 22:15 Calm 10.00 Mostly Cloudy FEW008 SCT070 BKN100 59 59 100% 30.04 0.0
22 21:55 Calm 10.00 Mostly Cloudy SCT008 SCT080 BKN100 59 59 100% 30.05 0.0
22 21:35 Calm 10.00 Partly Cloudy SCT021 SCT120 59 59 100% 30.05 0.0
22 21:15 Calm 10.00 Overcast OVC021 60.8 59 94% 30.05 0.0
22 20:55 Calm 10.00 Mostly Cloudy BKN021 60.8 59 94% 30.05 0.0
22 20:35 Calm 10.00 Mostly Cloudy BKN021 60.8 59 94% 30.04 0.0
22 20:15 Calm 10.00 Partly Cloudy SCT021 60.8 59 94% 30.04 0.0
22 19:55 Vrbl 5 10.00 Fair CLR 60.8 59 94% 30.04 0.0
22 19:35 S 5 10.00 A Few Clouds FEW017 62.6 59 88% 30.04 0.0
22 19:15 Vrbl 5 10.00 A Few Clouds FEW016 62.6 60.8 94% 30.04 0.0
22 18:55 Calm 10.00 Fair CLR 64.4 59 83% 30.04 0.0
22 18:35 Calm 10.00 Fair CLR 64.4 59 83% 30.04 0.0
22 18:15 Calm 10.00 Fair CLR 64.4 59 83% 30.04 0.0
22 17:55 Calm 10.00 Fair CLR 64.4 59 83% 30.05 0.0
22 17:35 Calm 10.00 Fair CLR 64.4 59 83% 30.05 0.0
22 17:15 Calm 10.00 Fair CLR 64.4 59 83% 30.06 0.0
22 16:55 SW 6 10.00 Fair CLR 64.4 59 83% 30.06 0.0
22 16:35 Vrbl 3 10.00 Fair CLR 66.2 59 78% 30.06 0.0
22 16:15 Vrbl 3 10.00 Partly Cloudy SCT024 64.4 59 83% 30.06 0.0
22 15:55 Calm 10.00 Mostly Cloudy SCT019 BKN024 66.2 60.8 83% 30.06 0.0
22 15:35 Vrbl 3 10.00 Partly Cloudy SCT017 64.4 60.8 88% 30.07 0.0
22 15:15 S 3 10.00 Overcast BKN017 OVC022 64.4 60.8 88% 30.07 0.0
22 14:55 Calm 10.00 Mostly Cloudy BKN017 64.4 60.8 88% 30.09 0.0
22 14:35 Calm 10.00 A Few Clouds FEW016 64.4 60.8 88% 30.09 0.0
22 14:15 Vrbl 3 10.00 Partly Cloudy SCT017 64.4 60.8 88% 30.1 0.0
22 13:55 Calm 10.00 Fair CLR 64.4 59 83% 30.1 0.0
22 13:35 Calm 10.00 Fair CLR 64.4 59 83% 30.11 0.0
22 13:15 Vrbl 6 10.00 Fair CLR 64.4 59 83% 30.1 0.0
22 12:55 S 6 10.00 Partly Cloudy SCT022 62.6 60.8 94% 30.11 0.0
22 12:35 Calm 10.00 Partly Cloudy FEW016 SCT023 62.6 60.8 94% 30.12 0.0
22 12:15 S 6 10.00 Partly Cloudy FEW014 SCT023 62.6 60.8 94% 30.11 0.0
22 11:55 Vrbl 5 9.00 Mostly Cloudy BKN014 BKN022 62.6 60.8 94% 30.12 0.0
22 11:35 Calm 10.00 Mostly Cloudy BKN015 62.6 60.8 94% 30.13 0.0
22 11:15 Vrbl 3 10.00 A Few Clouds FEW019 62.6 60.8 94% 30.13 0.0
22 10:55 Calm 9.00 Fair CLR 62.6 60.8 94% 30.12 0.0 0.01
22 10:35 S 5 10.00 Fair CLR 62.6 59 88% 30.13 0.0
22 10:15 Vrbl 3 10.00 Partly Cloudy FEW016 SCT022 64.4 59 83% 30.14 0.0
22 09:55 SW 7 10.00 Mostly Cloudy BKN016 BKN021 62.6 60.8 94% 30.14 0.0
22 09:35 Vrbl 6 10.00 Mostly Cloudy SCT012 BKN018 62.6 60.8 94% 30.14 0.0
22 09:15 SW 5 10.00 Mostly Cloudy BKN011 BKN016 60.8 60.8 100% 30.14 0.0
22 08:55 Calm 10.00 Fair CLR 60.8 60.8 100% 30.13 0.0
22 08:35 Calm 8.00 A Few Clouds FEW013 60.8 60.8 100% 30.13 0.0
22 08:15 Calm 5.00 Fog/Mist SCT013 60.8 60.8 100% 30.13 0.0
22 07:55 Calm 9.00 Mostly Cloudy BKN013 60.8 60.8 100% 30.13 0.0 0.01
22 07:15 Calm 10.00 Mostly Cloudy BKN015 BKN060 59 59 100% 30.13 0.0
22 06:55 Calm 10.00 Mostly Cloudy BKN060 59 59 100% 30.14 0.0
22 06:35 Calm 8.00 Overcast OVC065 59 59 100% 30.15 0.0
22 06:15 Vrbl 3 9.00 Overcast OVC065 59 59 100% 30.14 0.0
22 05:55 Calm 10.00 Overcast OVC065 59 59 100% 30.14 0.0
22 05:35 Vrbl 3 10.00 Overcast OVC065 59 59 100% 30.14 0.0
22 05:15 E 3 10.00 Overcast OVC060 59 59 100% 30.13 0.0
22 04:55 Calm 10.00 Overcast OVC060 60.8 59 94% 30.13 0.0
22 04:35 Calm 10.00 Overcast OVC060 60.8 60.8 100% 30.14 0.0
22 04:15 Calm 10.00 Overcast OVC055 60.8 60.8 100% 30.13 0.0
22 03:55 Calm 10.00 Overcast OVC060 60.8 60.8 100% 30.14 0.0
22 03:35 Calm 10.00 Overcast OVC060 59 59 100% 30.14 0.0
22 03:15 Calm 10.00 Overcast OVC060 59 59 100% 30.14 0.0
22 02:55 Calm 10.00 Overcast OVC065 60.8 60.8 100% 30.14 0.0
22 02:35 E 3 10.00 Overcast OVC070 60.8 60.8 100% 30.15 0.0
22 02:15 Calm 10.00 Overcast OVC070 60.8 60.8 100% 30.16 0.0
22 01:55 E 3 10.00 Overcast OVC070 60.8 60.8 100% 30.16 0.0
22 01:35 Calm 10.00 Overcast OVC070 62.6 60.8 94% 30.16 0.0
22 01:15 Calm 10.00 Overcast OVC070 60.8 60.8 100% 30.17 0.0
22 00:55 Calm 10.00 Overcast OVC070 62.6 60.8 94% 30.17 0.0
22 00:35 Calm 10.00 Overcast BKN070 OVC080 62.6 60.8 94% 30.17 0.0
22 00:15 Calm 10.00 Overcast OVC070 60.8 60.8 100% 30.17 0.0
21 23:55 Calm 10.00 Overcast OVC070 60.8 60.8 100% 30.18 0.0
21 23:35 Calm 10.00 Overcast OVC070 60.8 60.8 100% 30.18 0.0
21 23:15 Calm 10.00 Overcast OVC070 60.8 60.8 100% 30.19 0.0
21 22:55 Calm 10.00 Overcast OVC070 62.6 59 88% 30.19 0.0
21 22:35 SE 3 10.00 Overcast OVC065 60.8 59 94% 30.19 0.0
21 22:15 Calm 10.00 Overcast OVC070 62.6 60.8 94% 30.2 0.0
21 21:55 Calm 10.00 Overcast OVC070 62.6 59 88% 30.2 0.0
21 21:35 Calm 10.00 Overcast SCT060 BKN070 OVC110 60.8 59 94% 30.2 0.0
21 21:15 Calm 10.00 Overcast SCT060 BKN075 OVC100 60.8 60.8 100% 30.2 0.0
21 20:55 Calm 10.00 Overcast FEW075 OVC100 62.6 59 88% 30.19 0.0
21 20:35 E 3 10.00 Overcast FEW055 FEW070 OVC100 62.6 59 88% 30.19 0.0
21 20:15 E 5 10.00 Mostly Cloudy FEW050 SCT060 BKN075 62.6 55.4 77% 30.19 0.0
21 19:55 NE 5 10.00 Overcast SCT080 OVC100 64.4 53.6 68% 30.2 0.0
21 19:35 NE 3 10.00 Mostly Cloudy BKN100 64.4 55.4 73% 30.2 0.0
21 19:15 NE 5 10.00 A Few Clouds FEW050 FEW060 FEW075 64.4 59 83% 30.2 0.0
21 18:55 Calm 7.00 Mostly Cloudy FEW050 SCT060 BKN090 64.4 57.2 78% 30.21 0.0
21 18:35 NE 3 10.00 Mostly Cloudy FEW065 SCT075 BKN090 64.4 57.2 78% 30.21 0.0
21 18:15 Calm 10.00 Overcast FEW060 SCT070 OVC080 66.2 55.4 68% 30.22 0.0
21 17:55 E 6 10.00 Overcast OVC080 66.2 57.2 73% 30.21 0.0
21 17:35 E 6 10.00 Overcast OVC080 68 59 73% 30.2 0.0
21 17:15 Calm 10.00 Overcast OVC080 68 55.4 64% 30.21 0.0
21 16:55 Calm 10.00 Overcast BKN075 OVC085 68 57.2 69% 30.22 0.0
21 16:35 Calm 10.00 Mostly Cloudy BKN080 68 53.6 60% 30.22 0.0
21 16:15 Calm 10.00 Mostly Cloudy BKN080 BKN090 68 53.6 60% 30.22 0.0
21 15:55 Calm 10.00 Mostly Cloudy BKN085 68 53.6 60% 30.23 0.0
21 15:35 E 6 10.00 Overcast OVC085 68 53.6 60% 30.24 0.0
21 15:15 E 5 10.00 Overcast OVC085 69.8 53.6 57% 30.24 0.0
21 14:55 E 7 10.00 Mostly Cloudy BKN085 BKN110 69.8 53.6 57% 30.25 0.0
21 14:35 NE 6 10.00 Partly Cloudy SCT090 SCT110 71.6 53.6 53% 30.26 0.0
21 14:15 E 6 10.00 Mostly Cloudy BKN090 69.8 53.6 57% 30.26 0.0
21 13:55 NE 5 10.00 Overcast OVC090 69.8 53.6 57% 30.26 0.0
21 13:35 NE 5 10.00 Mostly Cloudy BKN090 69.8 53.6 57% 30.27 0.0
21 13:15 NE 5 10.00 Mostly Cloudy BKN090 69.8 55.4 60% 30.27 0.0
21 12:55 Calm 10.00 Mostly Cloudy BKN090 BKN110 69.8 53.6 57% 30.28 0.0
21 12:35 Calm 10.00 Partly Cloudy SCT110 71.6 53.6 53% 30.28 0.0
21 12:15 Calm 10.00 Partly Cloudy SCT110 69.8 53.6 57% 30.28 0.0
21 11:55 Vrbl 5 10.00 Partly Cloudy SCT110 69.8 55.4 60% 30.28 0.0
21 11:35 Calm 10.00 Fair CLR 69.8 53.6 57% 30.28 0.0
21 11:15 Vrbl 3 10.00 Fair CLR 69.8 57.2 64% 30.29 0.0
21 10:55 Calm 10.00 Fair CLR 68 55.4 64% 30.29 0.0
21 10:35 NE 6 10.00 Fair CLR 68 55.4 64% 30.29 0.0
Date Time (edt) Wind (mph) Vis. (mi.) Weather Sky Cond. Air Dwpt Max. Min. Relative Humidity Wind Chill (°F) Heat Index (°F) altimeter (in) sea level (mb) 1 hr 3 hr 6 hr
6 hour
Temperature (ºF) Pressure Precipitation (in)